Theta_e
285 285 284 284 284 284 283 282 281 282 283 284 284 283 282 280 279 279 278 277 276 275 275 275 275 275 274 274 275 276 277 279 280 281 282 284 286 289 290 291 293 293 294 295 296 296 295 296 298 300 301 302 303 306 313 315 314 315 315 315 316 316 317 317 317 316 315 317 318 318 319 317 316 316 316 316 316 315 314 315 312 309 307 306 308
285 284 284 284 284 284 283 282 282 283 284 284 284 283 281 280 279 278 277 276 275 275 275 275 275 274 274 274 274 275 276 278 280 281 281 283 286 289 290 291 292 293 294 294 295 296 295 296 298 300 301 302 302 306 313 315 314 315 315 315 315 315 316 317 317 316 315 316 317 318 318 317 316 317 316 316 316 316 314 312 310 308 308 308 308
284 284 284 283 283 283 282 282 282 283 284 284 283 282 280 279 277 276 276 276 275 275 274 275 274 274 274 274 275 275 276 278 280 281 281 283 286 288 289 290 291 291 293 294 294 295 295 296 298 299 301 303 303 307 313 315 314 314 314 314 314 314 316 316 317 317 316 316 316 318 318 317 317 317 316 316 316 315 312 310 309 310 312 311 309
284 284 283 283 283 282 282 282 283 284 284 283 282 280 278 277 276 275 275 275 274 274 274 274 274 274 273 274 275 275 276 277 278 280 281 282 285 287 289 290 291 290 292 293 293 295 295 296 297 299 301 303 303 307 313 314 314 314 314 314 313 314 315 315 316 317 317 316 316 317 318 318 317 317 317 316 315 314 312 309 309 312 313 313 311
284 283 282 282 282 282 282 283 283 283 283 282 281 279 277 276 275 274 273 273 273 274 273 273 273 273 273 273 274 274 274 275 278 279 280 281 283 286 288 289 290 290 291 291 293 294 295 295 297 298 301 303 303 307 313 314 314 314 314 314 314 314 315 315 315 317 317 317 316 317 318 318 317 317 316 315 313 315 313 308 308 311 313 313 311
283 282 282 282 282 282 282 283 283 283 282 281 279 277 275 274 273 273 273 272 272 272 272 272 272 272 272 272 272 273 274 275 277 279 280 281 283 285 287 288 290 291 290 291 292 294 294 295 296 298 301 302 302 307 313 314 314 314 314 314 315 314 315 315 315 316 317 317 317 316 317 317 317 316 316 314 313 316 313 307 307 311 311 312 312
283 282 282 282 281 282 282 283 283 283 282 280 278 276 275 274 273 272 272 271 271 271 271 272 272 272 271 271 272 273 274 275 277 279 280 281 282 285 287 288 290 290 290 290 292 293 294 295 296 297 300 302 302 307 313 314 314 314 314 314 315 314 315 315 314 315 316 316 316 316 317 317 317 316 315 312 313 315 312 308 310 312 311 312 313
282 282 281 281 281 282 282 283 282 282 281 279 277 275 275 274 272 272 271 271 270 270 271 272 272 272 271 271 272 273 274 275 277 279 280 280 281 284 287 288 289 290 290 290 291 293 294 295 296 297 300 301 301 305 312 314 313 314 314 314 314 314 315 315 314 315 315 315 316 316 317 316 315 315 314 312 313 315 313 311 313 314 313 314 314
281 281 281 281 281 282 282 282 282 281 279 278 277 276 276 274 272 271 271 271 269 270 271 271 271 272 272 272 272 273 274 274 276 278 280 280 281 283 285 287 288 289 290 290 291 293 293 294 295 297 299 301 301 304 310 314 314 314 313 313 314 314 314 314 314 314 315 315 315 315 315 315 314 314 313 312 311 312 312 314 315 315 315 315 315
281 281 280 280 281 281 282 282 281 280 279 278 277 277 276 275 273 272 272 270 269 270 271 271 271 273 273 273 272 273 273 273 274 276 278 279 280 281 284 286 288 288 289 290 291 292 293 294 295 297 299 301 301 303 307 312 314 314 313 313 313 314 314 314 313 313 314 314 313 313 313 314 314 313 313 312 311 310 311 314 316 315 315 315 314
281 280 280 280 281 281 282 282 281 280 279 279 278 277 277 275 273 272 271 271 270 270 271 271 272 273 274 273 272 273 273 274 275 276 277 278 279 280 282 284 286 287 288 289 291 292 293 293 294 296 299 300 301 303 306 310 313 313 313 313 313 313 314 313 313 313 314 314 313 314 314 314 314 314 312 312 312 311 311 313 315 315 315 315 314
280 280 280 280 281 281 282 282 281 281 280 280 279 278 277 275 273 271 271 271 270 270 270 271 272 274 275 275 274 273 274 276 277 277 277 278 279 279 281 282 284 286 287 288 290 291 293 293 294 295 298 300 301 303 305 309 312 313 313 313 313 313 314 314 314 314 313 313 313 313 314 314 314 314 312 312 313 312 312 313 314 315 315 315 315
280 280 280 280 281 281 282 282 282 281 280 280 279 279 277 275 272 271 271 272 271 270 271 271 272 274 275 275 275 274 275 277 277 277 277 277 278 279 280 282 284 286 287 287 289 290 291 293 293 295 297 299 301 303 304 308 312 313 312 313 313 313 313 314 314 314 314 313 312 313 314 314 314 314 313 313 313 313 313 313 313 315 315 315 315
280 279 280 280 281 281 282 282 281 281 280 280 279 279 277 275 272 271 271 271 271 271 271 272 273 275 276 276 275 273 275 277 277 277 277 277 277 279 280 281 283 284 286 287 288 289 290 292 293 294 296 298 300 302 304 306 311 312 312 312 312 312 313 313 313 314 314 313 312 312 312 313 313 314 313 313 313 314 314 313 314 314 315 315 315
279 279 279 280 281 281 281 281 281 280 280 280 279 278 276 274 272 271 271 270 270 271 272 273 274 276 276 276 274 274 276 278 278 278 278 277 277 279 280 281 282 283 285 287 288 289 289 291 292 293 295 297 300 302 303 305 309 312 311 311 311 312 312 312 312 313 313 313 311 311 312 312 312 313 313 313 313 314 313 313 313 314 315 314 314
279 279 279 280 281 281 281 281 280 280 279 279 278 277 275 273 272 271 270 271 271 272 273 274 274 276 277 277 275 275 278 279 279 279 279 278 278 279 280 281 282 283 285 286 287 288 289 290 292 293 294 297 300 302 302 304 308 311 311 311 311 311 312 312 312 312 312 312 312 311 312 312 312 312 313 314 314 313 312 312 313 314 314 314 313
278 278 279 280 280 281 280 280 279 279 279 278 277 276 274 273 272 271 270 271 272 273 274 275 276 277 278 278 277 277 280 281 280 280 280 279 279 279 280 281 281 282 284 285 286 287 288 289 291 292 293 296 300 301 302 303 307 311 311 310 310 310 311 311 311 311 311 311 311 311 312 313 312 312 312 314 314 313 312 312 313 314 313 312 312
278 278 279 280 280 280 280 278 278 278 278 276 275 274 273 271 271 270 269 270 272 274 275 276 277 277 278 279 279 279 281 283 282 281 281 280 280 279 280 281 281 282 283 284 285 286 287 288 290 291 293 296 299 301 301 303 307 311 312 311 309 309 310 310 309 310 310 311 311 311 312 313 313 312 312 314 314 313 313 312 313 314 313 312 312
277 278 279 279 280 279 279 278 277 276 276 275 274 272 270 269 268 268 269 270 272 274 276 276 277 278 279 279 280 280 281 284 284 282 281 281 281 280 281 281 282 282 282 283 285 285 287 288 290 291 293 295 299 301 301 302 306 310 312 310 309 310 310 310 309 309 309 309 310 311 311 312 312 312 312 313 314 314 314 314 313 314 314 313 313
277 278 278 279 279 279 278 277 276 275 275 275 273 272 269 267 267 268 269 270 272 274 275 275 276 278 279 279 280 281 281 283 285 284 283 282 281 281 281 281 281 281 282 283 284 285 286 288 290 291 293 295 299 301 301 302 304 309 311 310 309 310 310 310 309 309 309 309 309 309 310 310 311 311 312 313 313 314 314 314 314 314 313 313 313
277 277 278 278 279 278 277 276 275 275 275 274 273 272 269 267 267 268 269 271 273 274 274 274 275 277 279 279 280 281 282 284 286 286 285 284 283 282 281 281 281 281 282 283 284 285 287 288 290 291 293 296 299 301 301 301 303 307 310 310 310 311 310 310 309 309 309 309 309 309 309 309 310 310 311 312 313 313 313 313 314 314 313 312 312
276 277 278 278 278 278 277 276 275 275 274 274 273 272 270 268 269 269 270 272 273 273 272 273 273 275 277 278 279 281 282 283 286 288 287 285 285 284 283 283 282 282 283 284 285 286 287 289 290 292 294 296 299 300 301 302 302 306 309 310 310 311 311 310 309 308 308 308 309 309 309 309 309 310 310 311 311 311 312 312 313 313 313 312 312
276 276 277 278 278 277 276 275 275 275 274 274 273 271 269 269 269 270 271 271 271 271 271 272 273 274 275 277 278 280 282 283 285 288 288 287 287 286 286 285 284 284 284 285 285 286 287 289 290 292 294 296 298 299 301 302 302 305 308 309 309 310 311 310 309 308 307 308 308 308 308 309 310 310 310 311 311 311 312 313 313 312 312 312 312
276 276 277 277 277 276 276 275 275 275 274 274 273 271 270 269 270 270 270 270 270 269 270 271 272 273 274 275 276 279 282 283 285 288 289 289 289 288 288 287 286 285 285 286 286 287 288 289 291 292 294 296 297 298 301 303 303 304 307 308 309 309 309 308 308 308 307 307 307 308 309 310 310 310 311 311 311 311 311 311 311 310 310 310 310
275 276 276 277 276 276 275 275 275 274 274 274 273 271 269 269 270 270 270 269 269 269 270 271 272 273 274 274 275 279 282 283 284 287 289 290 290 290 290 289 288 287 286 286 287 288 289 290 291 292 294 296 296 298 300 303 304 304 306 308 308 309 308 307 307 307 307 307 308 308 309 310 309 310 311 311 310 310 310 309 308 308 308 308 308
275 275 275 276 276 275 275 275 275 274 274 274 274 272 269 268 269 269 269 268 268 269 270 271 272 273 274 273 274 278 281 282 283 285 287 288 289 290 291 291 290 289 288 288 288 289 290 291 292 293 294 295 296 298 301 304 304 304 305 306 307 308 308 307 307 307 307 307 308 308 309 310 309 310 310 310 310 309 309 309 308 307 307 308 308
274 274 275 275 275 274 274 274 274 274 274 273 273 272 271 269 269 269 268 267 268 269 270 270 272 273 272 272 273 276 278 279 281 284 286 286 287 289 291 292 292 291 291 290 290 291 291 291 292 293 294 294 295 298 301 303 304 304 304 305 306 307 307 307 308 308 308 308 308 308 309 309 308 308 309 309 309 309 309 308 308 307 308 308 308
273 274 274 274 274 274 274 274 274 274 274 274 273 271 270 269 269 268 267 266 267 269 269 270 271 272 271 271 273 274 276 277 278 280 283 285 286 288 290 292 293 293 293 293 292 292 292 293 293 293 294 294 296 298 300 302 303 304 304 304 305 306 306 307 308 309 309 308 307 306 307 307 307 308 308 309 309 309 309 308 308 308 308 308 307
273 273 273 274 273 273 273 273 273 273 273 274 274 272 270 269 269 269 269 268 267 268 269 269 271 271 271 271 272 272 273 275 276 278 281 284 287 289 290 291 293 294 294 294 294 294 294 294 294 294 295 295 297 299 300 301 302 303 303 304 305 305 305 306 307 307 307 306 305 305 306 306 307 308 308 308 309 309 309 308 308 308 308 307 306
272 273 273 273 273 273 273 273 273 273 272 273 274 275 274 272 271 270 270 270 269 269 269 269 270 271 270 270 272 272 272 273 276 280 283 286 288 290 292 292 292 293 294 295 295 296 296 296 296 296 296 297 298 299 300 301 302 303 303 303 304 304 305 305 306 306 305 305 305 306 306 306 306 307 308 308 308 308 308 308 307 307 307 307 306
272 272 272 272 272 272 272 272 272 272 272 272 273 274 275 276 275 273 272 271 271 271 271 270 270 270 270 270 271 273 274 275 278 281 285 287 289 291 293 294 294 294 294 295 295 296 297 297 297 297 297 298 299 300 301 301 302 303 302 303 304 304 305 305 305 305 305 304 305 305 305 306 307 308 308 308 307 307 306 306 305 306 307 307 306
271 271 271 271 271 271 271 272 271 271 271 271 272 272 273 275 277 276 274 273 272 271 272 273 271 270 271 271 271 272 273 275 277 280 284 286 289 292 294 294 295 295 295 296 296 296 297 297 297 298 298 298 299 300 301 302 303 303 303 303 304 304 305 305 305 305 304 304 304 304 305 305 307 309 309 308 306 306 305 304 304 305 305 305 305
271 271 271 271 271 271 271 271 271 270 270 270 271 271 271 272 274 275 275 276 275 273 274 274 272 271 271 273 273 272 272 273 275 278 282 286 290 292 294 295 295 296 296 296 296 297 297 297 298 298 298 299 300 301 301 302 303 304 303 303 303 304 304 305 304 304 304 304 304 304 304 305 305 307 307 307 306 305 305 304 305 304 303 302 302
270 270 271 270 270 270 270 270 270 270 269 269 270 270 270 270 271 272 272 273 274 274 274 274 274 271 270 272 274 274 273 274 274 276 280 285 288 290 292 295 296 296 296 296 296 296 297 297 298 298 298 299 300 300 301 303 304 304 304 304 304 304 304 303 303 304 304 304 304 304 304 304 304 305 305 305 304 304 303 303 304 303 302 301 301
270 270 270 270 270 270 270 270 270 270 269 269 269 269 269 270 271 271 270 270 270 271 272 274 274 272 270 271 273 274 273 273 273 275 278 282 285 288 291 293 293 292 292 293 294 295 296 297 298 298 299 299 300 301 302 303 304 304 304 304 304 303 303 303 303 304 303 303 303 303 303 303 303 305 305 304 303 302 301 302 303 304 302 301 300
270 270 270 270 270 270 269 269 269 269 269 269 269 269 269 270 270 270 270 269 269 270 271 272 273 272 271 271 273 274 273 272 272 274 277 278 280 284 286 285 284 285 286 288 290 292 294 296 297 299 299 299 300 301 302 303 304 304 304 304 304 303 303 304 304 303 303 303 303 303 303 302 302 304 304 304 303 302 302 302 303 303 302 301 300
270 270 270 270 269 269 269 269 269 269 269 269 269 269 269 270 270 270 270 269 269 270 270 271 272 273 272 271 273 274 274 274 275 277 278 278 278 279 278 276 277 279 280 283 285 288 290 293 296 298 299 300 301 302 302 303 304 304 304 304 304 304 304 304 304 304 303 303 302 302 302 302 302 303 303 303 302 302 302 302 302 302 301 301 300
269 269 269 269 269 269 269 269 269 269 269 269 269 269 269 270 270 270 269 269 269 269 269 270 271 270 269 269 271 273 275 277 279 279 278 278 277 275 274 274 275 275 276 278 281 284 286 290 293 295 298 299 300 301 302 302 303 303 304 304 304 304 305 304 304 303 303 303 302 302 302 302 302 302 302 303 302 301 301 301 301 300 300 299 299
269 269 269 269 269 269 269 269 269 269 269 269 269 269 269 269 269 269 269 269 268 269 268 268 269 269 267 266 269 272 274 275 275 275 275 274 274 273 273 274 275 274 274 275 278 280 283 286 288 291 294 297 299 300 301 301 301 302 303 304 304 304 304 303 303 303 304 303 303 303 302 302 302 301 302 302 302 302 301 301 300 300 299 299 299
269 269 269 269 269 269 269 269 269 269 269 269 269 268 268 268 268 268 269 269 269 269 268 267 268 268 267 266 268 270 271 271 271 272 272 273 273 272 273 273 274 274 274 274 276 277 279 281 284 287 290 293 295 298 299 300 300 300 301 302 303 303 303 303 303 304 304 304 303 303 303 302 302 302 302 302 303 302 302 302 301 301 301 300 300
269 269 269 269 269 268 268 268 268 268 268 268 268 268 268 268 268 268 268 268 268 269 268 268 267 268 268 267 268 269 270 270 270 271 271 272 272 272 272 271 272 274 274 274 275 275 276 278 281 283 285 288 291 294 296 297 299 299 299 300 301 301 302 302 303 303 304 304 303 303 303 302 302 302 302 303 303 302 302 302 302 301 300 300 300
269 268 268 268 268 268 268 268 268 268 268 268 268 268 268 267 267 267 267 268 268 268 268 268 268 268 268 268 269 269 270 270 270 271 271 272 272 272 272 271 271 272 273 274 274 275 275 276 278 280 282 284 287 290 292 294 296 297 298 298 299 299 300 300 301 302 302 302 302 302 303 302 302 303 303 303 302 302 301 301 301 300 300 299 299
268 268 268 268 268 268 268 268 268 268 268 268 268 268 268 267 267 267 267 267 267 267 268 268 268 268 268 268 269 269 270 270 270 270 270 271 271 272 272 272 272 272 273 274 275 275 276 276 277 278 279 281 283 285 288 290 291 293 295 296 297 298 298 298 299 299 300 300 300 301 302 302 303 303 303 303 302 302 302 301 301 300 300 299 299
268 268 268 267 268 268 268 268 268 268 268 267 267 267 268 267 267 267 267 267 267 267 267 267 267 268 268 268 268 269 269 269 269 269 270 270 270 271 271 272 273 273 274 274 275 276 277 277 277 277 278 279 281 282 284 286 288 290 291 293 294 295 296 297 297 298 298 299 299 300 300 301 301 301 301 301 302 302 302 301 301 301 300 300 299
268 268 268 267 267 267 267 267 267 267 267 267 267 267 267 267 267 267 267 267 267 267 266 267 267 267 267 268 268 268 268 268 268 269 269 269 269 270 270 271 273 273 274 274 275 276 277 277 277 278 278 279 280 281 283 284 286 287 288 290 291 293 294 295 296 296 297 298 298 299 299 299 299 299 299 299 300 300 300 300 300 300 300 299 299
268 268 267 267 267 267 267 267 267 267 267 267 267 267 267 267 267 267 267 267 267 266 266 266 266 266 267 267 267 267 268 268 268 268 268 269 269 269 270 271 272 273 273 274 274 275 276 276 277 277 277 277 278 280 281 283 284 285 286 287 289 290 292 293 294 295 296 297 297 298 298 298 298 298 298 298 298 298 298 299 299 299 299 299 299
268 267 267 267 267 267 267 267 267 267 267 267 267 267 267 267 267 267 267 267 266 266 266 267 266 266 266 266 267 267 267 267 267 268 268 268 269 269 269 270 271 272 273 273 273 274 275 275 275 276 276 276 277 278 280 281 282 283 284 285 286 288 289 291 292 294 295 296 296 297 297 297 297 297 298 298 298 298 298 297 297 298 298 298 298
267 267 267 267 267 267 267 267 267 267 267 267 267 267 267 267 267 267 267 267 267 266 266 266 267 267 266 266 266 266 266 267 267 267 267 268 268 268 269 269 270 271 272 272 272 273 273 274 274 275 275 275 276 277 278 279 280 281 282 282 283 285 286 288 290 292 292 294 294 295 296 296 297 297 297 297 297 297 297 297 297 297 297 297 297
267 267 267 267 267 267 267 267 267 267 267 267 267 267 267 267 267 267 267 266 266 266 266 266 266 266 266 266 266 266 266 267 267 267 267 267 268 268 268 268 269 269 270 271 271 272 272 272 273 273 274 274 274 275 276 277 278 279 279 280 281 282 284 286 287 288 290 291 292 293 294 295 295 295 296 296 296 296 296 296 296 296 296 296 296
267 267 267 267 267 266 266 266 266 266 266 266 266 266 266 266 267 267 266 266 266 266 266 266 266 266 266 266 266 266 266 266 266 266 267 267 267 267 267 268 268 269 269 270 270 270 271 271 271 271 272 273 273 274 274 274 275 276 277 278 280 281 282 283 284 286 287 288 289 290 291 292 293 293 294 294 294 295 295 295 295 295 295 295 295
266 266 266 266 266 266 266 266 266 266 266 266 266 266 266 266 266 266 266 266 266 266 266 266 266 266 266 266 266 266 266 266 266 266 266 266 267 267 267 267 267 268 268 269 270 270 270 270 270 270 270 271 271 272 273 273 274 274 275 277 278 279 280 281 282 283 284 285 287 288 288 289 290 291 291 291 292 292 292 293 293 293 293 293 293
Wind_Speed
44 45 47 48 49 51 52 53 52 51 51 50 50 51 49 49 48 47 46 44 43 42 41 41 40 39 39 37 35 35 35 35 36 36 36 36 36 32 24 22 27 31 32 32 30 30 33 35 36 37 39 39 39 40 54 65 62 64 65 65 67 65 66 65 60 54 52 58 62 65 68 65 59 56 53 53 55 55 53 51 50 52 54 54 53
45 46 47 48 49 51 52 53 52 51 52 51 51 51 50 49 47 45 44 43 42 41 40 40 40 39 39 39 38 37 37 37 37 37 37 36 36 34 26 21 25 30 32 32 31 30 31 34 36 36 38 37 37 40 56 65 61 63 64 64 61 59 61 60 60 58 54 56 60 63 68 66 62 59 55 55 57 57 55 53 54 57 58 57 55
45 46 48 48 49 51 51 52 52 51 52 52 52 51 50 48 45 43 44 44 42 41 40 40 40 40 40 40 39 38 37 37 36 37 38 37 38 37 30 22 22 28 32 32 32 30 30 34 35 35 37 36 36 41 59 65 62 64 63 63 60 58 59 57 60 63 60 58 60 64 69 66 63 61 58 57 58 57 56 55 58 60 59 58 57
46 47 48 49 49 50 51 52 52 52 52 53 53 51 49 47 44 43 43 43 42 41 41 40 40 40 39 38 38 35 33 33 33 35 37 37 39 40 33 24 21 26 31 31 31 31 31 33 34 33 34 34 35 41 62 65 62 65 63 62 62 61 61 57 60 66 64 62 61 64 69 67 63 62 60 59 57 56 57 57 60 61 59 58 58
46 47 48 49 50 50 51 51 52 53 53 54 53 51 48 46 45 44 42 42 43 42 42 41 39 38 37 36 37 34 33 33 33 34 37 37 39 41 37 29 24 24 27 29 30 30 31 32 32 31 32 32 35 41 65 66 64 66 63 63 63 62 63 59 60 66 66 66 64 61 66 67 63 63 62 60 58 59 58 56 59 61 59 58 58
46 47 48 49 50 50 50 51 52 53 53 53 53 50 48 47 46 45 43 44 44 43 44 43 40 38 37 37 39 39 39 38 35 35 38 38 39 41 39 33 28 25 25 29 31 30 30 31 31 30 31 32 35 41 66 67 65 68 63 64 63 61 64 61 60 64 65 68 68 63 64 66 64 63 62 59 60 63 61 57 58 59 59 59 58
46 47 48 49 50 50 51 52 53 54 54 53 52 50 48 48 47 47 46 45 44 43 44 44 42 40 39 39 41 42 42 40 36 35 37 38 40 42 40 35 30 27 26 30 32 29 28 30 29 29 31 32 33 38 66 69 66 69 66 64 63 61 63 63 61 64 64 65 67 66 66 66 64 64 63 60 61 64 63 63 63 63 62 62 61
46 47 48 49 50 51 52 53 54 54 54 53 52 51 50 49 48 48 47 44 42 41 41 41 40 40 40 40 40 40 40 39 34 33 35 37 39 41 42 38 34 30 28 29 32 30 27 28 28 29 31 32 31 33 62 72 67 69 67 64 64 63 63 63 61 62 64 64 65 67 67 65 63 63 64 64 64 65 65 67 70 69 67 66 64
47 47 48 49 50 51 52 54 54 54 53 52 52 52 51 50 48 48 46 43 41 40 39 38 38 39 39 38 37 37 37 37 34 31 32 34 36 39 42 41 36 34 31 30 32 32 29 28 28 28 31 33 30 28 52 74 71 69 68 64 64 65 64 64 62 62 63 63 63 65 65 65 64 64 66 69 70 69 68 69 69 69 69 67 64
47 48 49 49 50 51 53 54 55 54 53 53 52 52 51 49 48 47 45 42 41 39 38 37 37 37 37 37 37 35 34 35 34 33 32 30 30 34 40 42 40 37 35 34 35 35 31 29 28 28 29 33 30 25 37 67 74 70 70 68 67 69 67 66 65 63 63 63 63 64 65 65 67 69 71 73 72 70 70 69 67 66 67 65 61
46 48 49 49 50 51 53 55 55 54 53 52 52 51 50 49 47 45 44 42 41 40 38 38 37 36 35 36 38 37 36 36 35 34 32 29 28 30 34 39 41 40 39 39 39 39 36 32 29 28 28 31 30 25 27 55 71 69 70 71 69 71 72 69 68 66 65 65 65 66 68 68 70 72 72 71 70 71 72 71 68 66 66 66 61
46 47 48 49 50 52 53 55 56 55 54 53 53 51 50 48 46 45 43 42 42 41 39 38 37 36 36 36 37 38 37 36 34 32 31 28 28 29 31 35 40 42 41 40 41 42 41 37 32 29 27 28 29 25 24 45 67 67 67 70 68 70 73 72 70 69 66 66 66 67 69 69 70 72 73 72 73 72 71 71 70 69 68 67 64
45 47 48 49 50 52 53 55 56 56 54 54 53 51 50 48 46 45 43 40 40 39 39 39 37 35 36 37 38 38 36 35 33 31 28 25 25 28 32 36 40 42 43 42 42 43 43 40 35 31 28 27 27 25 23 38 62 66 65 68 68 68 71 71 72 71 68 67 67 67 68 68 70 73 76 76 74 72 71 71 72 71 69 66 64
44 46 47 48 50 51 53 55 55 55 54 53 53 52 50 48 46 44 43 41 41 40 38 38 37 34 34 36 38 38 35 33 32 30 27 24 23 24 29 33 36 41 43 44 44 44 44 42 38 34 30 26 25 24 23 34 57 66 64 67 68 68 69 70 71 72 70 68 67 65 65 65 66 71 76 77 77 76 75 74 73 72 69 65 62
44 45 47 48 49 51 53 55 55 55 54 54 54 53 50 48 46 44 42 41 42 41 38 37 36 33 32 33 36 36 32 30 31 29 26 23 23 25 28 30 33 39 43 45 45 44 44 43 40 37 33 28 24 23 21 31 53 65 63 65 68 68 69 70 70 71 71 71 70 66 64 62 62 65 72 78 80 79 77 75 73 71 67 62 59
43 45 46 47 49 50 52 54 55 55 54 54 55 54 51 49 46 44 43 41 40 39 37 35 34 33 31 31 34 34 30 28 30 28 24 21 22 24 28 31 33 37 41 44 45 45 45 44 43 40 36 30 25 22 20 29 49 63 63 63 65 67 69 70 70 71 71 71 70 66 64 62 60 61 67 75 80 78 73 70 68 67 65 61 57
43 44 45 46 48 49 50 53 54 54 55 55 55 54 52 50 46 43 42 41 39 38 36 33 31 30 30 30 31 32 29 26 27 27 23 21 21 23 26 30 32 34 37 41 44 45 46 45 45 43 39 32 26 22 20 28 46 61 62 61 62 65 67 68 68 69 70 69 68 65 62 61 59 59 64 72 79 78 72 69 69 69 67 62 59
42 43 44 45 47 49 49 51 52 53 54 54 54 54 52 50 47 43 41 41 39 35 33 31 30 28 29 30 30 30 29 24 24 25 22 21 22 23 25 29 31 33 36 38 40 43 45 45 45 44 40 33 26 22 21 28 46 60 61 59 61 64 66 67 67 67 66 66 65 64 61 59 57 60 65 71 78 80 76 74 74 73 68 64 62
41 42 44 45 46 48 49 50 50 51 52 53 53 53 51 48 46 43 41 41 38 33 31 31 31 29 29 30 30 30 29 24 22 24 23 21 22 25 27 30 34 36 38 38 39 40 42 46 45 42 39 34 27 23 22 27 45 61 63 61 64 66 67 68 68 67 65 63 62 62 62 60 59 62 66 69 73 76 77 77 76 74 69 65 63
40 41 43 44 45 46 47 49 50 49 50 51 51 50 47 44 43 40 38 37 34 31 32 34 35 31 29 31 32 30 29 25 21 22 22 21 21 24 28 33 35 36 36 35 36 37 40 45 46 41 37 33 28 25 23 27 42 60 65 65 68 70 69 69 69 69 67 64 62 61 62 62 62 63 66 68 70 73 75 77 77 75 71 67 65
39 40 41 43 44 45 46 47 49 48 48 49 49 48 44 41 39 37 36 35 32 31 34 36 38 36 32 32 33 31 29 26 21 19 20 22 22 23 28 33 33 33 32 32 33 35 38 42 44 39 36 33 29 27 25 27 40 57 66 69 71 71 69 67 67 66 66 64 62 60 59 61 62 63 65 67 69 72 76 77 76 73 72 70 69
38 39 40 41 43 44 46 47 47 47 47 47 48 46 42 39 37 36 35 34 32 35 38 39 40 39 36 34 33 31 30 27 22 18 17 19 22 23 27 31 32 32 33 33 34 35 37 40 40 36 34 31 29 28 27 28 39 56 67 69 68 68 67 67 66 63 63 63 62 60 59 60 61 63 65 66 68 72 75 74 71 69 69 70 68
37 38 39 40 42 43 44 46 46 47 47 46 47 45 41 38 37 35 35 35 36 40 43 41 40 41 40 37 36 33 30 27 23 19 17 16 18 21 24 28 30 32 34 35 34 34 35 36 36 34 32 30 27 28 29 29 38 56 66 66 65 66 67 67 65 63 62 62 62 61 61 62 63 65 67 68 69 71 70 67 63 60 59 60 59
36 37 38 39 41 42 43 44 45 46 46 46 46 44 40 38 37 36 35 36 39 44 44 40 39 41 39 39 40 35 29 25 22 19 18 18 18 18 20 23 28 32 34 34 33 33 33 34 33 31 30 29 27 27 30 30 38 53 63 63 63 64 63 63 64 63 62 61 61 63 64 65 66 67 68 68 66 63 60 55 53 52 51 50 50
36 36 37 38 40 41 43 43 44 45 45 45 45 44 41 39 37 37 36 36 40 46 43 39 40 40 37 38 41 37 30 27 24 20 19 20 20 20 19 20 24 30 34 33 32 32 32 31 30 29 28 28 26 26 30 31 36 49 60 62 62 62 61 62 63 63 63 64 64 66 66 66 66 67 66 64 61 58 55 52 52 52 50 48 48
35 35 36 37 38 40 42 43 44 45 45 45 44 42 41 40 38 37 37 37 41 45 41 38 41 41 37 39 41 36 31 30 26 20 19 21 22 23 21 19 19 24 29 30 29 29 28 27 27 28 28 27 25 27 31 30 32 47 59 59 60 62 62 63 65 65 65 67 67 67 67 66 66 66 65 63 60 58 56 55 55 56 54 53 54
33 34 35 36 37 39 41 42 44 45 46 46 45 42 41 41 38 37 38 39 43 44 40 38 41 41 38 40 40 35 33 34 31 24 19 19 20 21 21 19 17 18 21 24 25 26 26 26 27 27 28 27 25 27 30 27 32 49 59 58 59 63 63 64 67 68 68 69 68 66 66 65 66 65 64 63 62 60 59 58 58 59 59 59 59
31 32 33 35 36 37 39 41 43 45 46 47 46 45 44 43 41 38 37 38 41 42 39 37 40 40 38 38 38 36 34 36 36 33 28 24 21 19 19 19 17 16 18 21 24 25 25 26 27 28 29 28 27 28 27 26 34 51 59 57 60 63 64 65 67 67 67 66 63 61 62 64 65 65 64 64 63 63 63 61 61 61 61 61 60
30 31 32 33 35 36 37 39 41 43 45 46 46 45 44 44 44 40 35 33 35 37 36 35 37 38 37 35 35 36 38 39 37 34 30 28 25 22 20 19 17 16 16 19 22 25 26 28 29 31 32 31 29 29 27 28 37 51 57 57 60 62 62 64 65 65 64 61 58 60 62 64 65 65 64 63 63 64 65 66 65 63 61 61 60
29 30 31 33 34 35 36 38 39 41 43 45 46 46 43 43 43 42 38 34 32 31 30 30 33 36 36 33 30 29 32 36 34 29 27 27 27 25 22 20 20 19 17 17 20 24 28 31 33 35 35 33 31 30 29 31 40 51 55 57 60 60 61 64 66 64 61 59 59 63 64 64 64 64 63 63 63 63 65 66 65 63 61 60 60
29 30 31 32 33 34 35 36 38 40 42 43 46 47 47 44 42 42 41 38 36 34 30 29 33 36 35 33 30 25 24 28 27 24 24 24 26 26 23 20 21 21 20 19 21 25 29 32 35 36 36 34 33 32 32 34 42 51 55 58 60 61 63 65 65 64 61 59 60 62 63 64 65 64 64 64 64 64 64 63 62 62 61 60 60
27 28 29 30 31 32 33 34 37 39 40 42 44 46 49 49 46 44 43 42 41 40 36 34 38 39 35 33 33 31 28 28 26 22 19 18 20 22 21 20 20 21 21 23 25 28 30 33 37 37 36 36 35 35 34 37 44 52 56 58 60 62 64 66 65 64 63 61 61 62 63 64 65 64 64 64 63 64 63 62 62 62 61 60 60
26 27 28 28 29 31 32 33 35 37 39 41 43 44 46 49 49 48 47 45 43 43 41 41 44 45 41 36 33 33 33 31 28 24 19 13 12 13 15 17 18 19 20 23 27 30 31 34 37 37 37 37 38 37 38 40 45 51 56 59 61 62 63 64 63 63 62 62 62 62 62 63 63 63 63 63 63 63 63 63 63 61 60 59 60
25 25 26 27 28 29 31 32 34 35 37 39 41 42 44 45 46 48 51 52 50 49 47 46 48 52 51 43 36 35 35 34 32 28 22 14 9 5 8 14 16 18 18 20 24 27 30 33 36 37 37 37 38 39 40 42 46 51 55 59 60 60 59 59 59 61 61 61 60 60 61 61 62 62 62 62 62 62 62 63 63 62 62 61 61
22 23 24 26 26 28 29 31 32 34 35 36 39 41 42 42 44 46 49 53 55 55 53 51 51 54 55 51 45 40 38 37 36 32 26 20 14 3 5 6 7 9 9 10 15 20 25 29 33 35 36 37 38 40 41 43 46 50 54 56 56 56 56 58 59 61 61 60 59 59 59 60 62 63 62 61 61 62 62 63 64 64 64 63 60
21 22 23 24 25 26 28 29 31 32 33 35 37 38 39 41 43 45 47 49 52 53 54 53 52 53 55 55 50 45 43 42 40 35 32 30 24 16 13 17 19 16 13 11 8 11 16 22 27 31 34 36 38 40 42 44 46 49 52 54 54 54 56 59 60 61 60 60 60 60 59 59 60 61 61 61 61 63 63 63 64 64 64 62 61
20 21 22 23 24 25 26 27 29 30 31 33 35 37 38 40 42 44 46 48 50 51 53 54 54 55 57 58 54 50 48 45 40 34 33 34 33 33 34 34 31 28 26 22 17 12 9 12 18 24 29 32 34 37 39 43 45 47 49 52 54 55 57 59 60 60 60 60 59 59 59 59 60 60 61 61 62 63 63 62 63 63 63 62 60
19 20 22 22 23 24 25 26 28 29 30 32 34 36 38 39 41 43 44 47 48 50 51 54 55 57 58 58 57 54 51 48 44 41 40 40 41 42 42 40 36 36 35 30 26 22 17 12 12 16 22 27 30 33 35 38 42 45 48 51 53 55 57 58 58 59 59 59 58 58 58 58 59 60 61 62 62 62 61 61 61 61 60 59 59
18 19 20 21 22 23 24 26 27 28 30 31 33 35 37 38 40 42 44 45 46 48 50 52 53 54 55 55 55 56 56 55 55 53 51 49 48 48 46 43 41 41 40 36 33 30 25 20 16 13 15 20 25 30 32 34 36 40 45 49 51 53 54 56 56 57 59 59 59 59 58 58 58 59 61 61 61 61 61 60 60 59 58 58 60
16 17 19 20 21 22 23 24 26 27 29 30 32 33 35 37 39 40 42 43 44 46 48 49 50 51 52 52 52 54 56 57 58 56 53 51 50 50 49 48 46 45 43 41 39 37 33 28 23 18 15 15 18 24 28 31 33 35 39 44 48 50 52 54 56 58 59 60 59 60 60 60 59 59 60 60 61 61 61 60 60 60 59 60 61
15 17 18 19 20 21 22 23 25 26 27 29 30 31 33 35 37 38 39 40 41 43 45 45 46 47 47 48 48 50 52 53 54 54 53 52 51 51 51 50 49 47 46 45 43 42 40 36 31 26 22 17 15 17 21 26 30 33 35 38 41 44 48 51 54 57 58 59 59 60 60 59 59 59 60 61 60 60 59 59 59 58 58 58 58
14 15 17 18 19 20 21 22 23 24 25 27 28 30 31 33 34 36 37 38 40 41 42 42 43 44 44 45 46 47 49 50 51 52 52 51 51 51 51 50 49 48 47 46 46 45 44 41 38 34 30 24 19 17 17 19 22 26 30 33 34 36 40 44 47 51 54 56 58 59 59 59 59 60 61 61 59 58 57 57 57 56 55 55 55
13 15 16 17 18 19 20 21 22 23 24 26 27 28 29 31 32 34 35 36 37 38 39 40 41 42 42 43 44 46 48 49 50 51 51 52 52 52 50 49 48 47 46 46 45 45 45 44 43 40 37 33 28 23 19 17 17 19 22 26 29 31 34 37 41 44 47 49 52 54 56 58 59 60 60 59 58 57 56 56 55 55 54 54 54
12 13 15 16 17 18 19 20 21 22 23 25 26 27 28 29 30 32 33 34 35 37 38 39 40 41 42 43 44 45 47 47 48 49 49 50 50 50 50 48 47 46 46 46 45 44 44 44 43 42 40 38 34 29 25 21 19 17 17 19 22 25 29 32 35 38 41 44 46 48 50 52 55 56 55 55 57 57 56 55 55 55 55 54 54
11 12 13 14 15 16 17 18 20 21 22 23 24 26 27 28 29 30 31 32 33 35 35 36 38 39 40 41 43 43 44 45 45 46 47 47 48 48 48 47 46 45 46 46 46 45 44 44 43 43 42 40 37 34 31 27 24 21 18 15 15 17 21 24 27 31 35 38 41 43 45 46 47 48 48 48 50 52 52 52 52 52 52 53 53
10 11 12 13 14 15 16 17 18 19 21 22 23 24 26 27 28 29 30 31 32 33 33 34 35 36 37 39 39 40 41 43 43 43 44 45 45 46 46 46 44 44 45 46 46 46 46 45 44 44 43 42 39 37 34 31 29 26 23 20 16 13 12 15 18 22 26 30 33 36 38 39 41 42 42 43 44 45 45 46 47 49 50 51 52
10 10 11 12 13 14 15 16 17 19 20 21 22 23 24 25 27 27 28 29 30 31 31 32 33 35 36 36 37 38 39 40 40 41 42 43 43 44 45 44 43 43 43 44 45 46 46 45 45 44 44 43 42 40 37 34 32 30 28 25 22 17 12 10 11 14 18 22 25 28 31 32 33 35 36 38 39 39 40 41 42 44 45 47 47
9 10 11 12 12 13 14 15 17 18 19 20 21 22 23 24 25 26 27 28 29 29 30 31 32 33 34 34 35 36 36 36 37 38 39 40 41 42 43 43 43 43 42 43 44 45 45 45 45 44 43 44 44 44 42 39 35 33 31 29 26 21 17 13 11 11 12 15 18 21 24 26 28 29 30 31 33 34 35 36 37 38 39 40 41
8 9 10 11 12 13 14 15 16 17 18 19 19 20 21 22 23 24 25 26 27 28 29 30 30 31 32 33 33 34 34 35 36 37 38 38 39 40 41 41 42 41 40 41 43 44 44 44 44 44 43 43 44 45 45 43 40 37 34 31 27 23 19 17 15 14 12 12 13 15 16 19 21 23 23 24 26 27 29 30 31 32 33 35 36
7 8 10 11 12 13 14 15 16 16 17 18 18 19 20 20 21 22 23 24 25 26 27 28 29 30 30 31 32 33 33 34 35 35 36 37 37 38 38 39 39 40 39 40 41 42 43 43 44 44 44 43 43 43 44 44 43 40 37 33 29 26 23 21 20 17 15 13 12 11 11 13 15 16 17 18 19 20 22 23 25 26 27 29 30
7 8 9 10 11 12 13 14 14 15 16 17 17 18 19 19 20 21 22 23 24 25 26 26 27 28 28 29 30 31 32 33 33 33 34 35 35 36 36 37 37 38 38 38 38 39 41 42 44 45 45 44 43 42 42 42 41 39 38 36 34 32 29 26 24 21 18 16 14 12 11 11 12 13 14 14 14 15 16 17 19 20 20 22 23
Wind_Direction
329 329 328 329 329 328 328 327 327 327 327 326 326 325 323 321 318 316 314 311 309 307 305 303 301 298 297 293 289 285 279 277 275 274 274 269 269 271 275 282 278 275 274 272 278 280 275 271 262 261 257 251 265 251 207 194 196 194 191 191 190 188 186 183 181 178 181 187 188 187 187 185 185 188 188 189 192 193 194 194 193 192 191 190 186
329 329 329 329 329 328 328 328 328 328 328 328 327 327 325 322 319 317 314 312 309 307 305 304 302 298 296 292 288 284 278 274 270 270 271 267 264 264 268 277 280 280 275 271 276 278 275 271 262 260 255 250 263 247 206 193 194 192 191 191 188 186 185 183 180 176 176 184 187 186 187 187 187 188 190 190 191 192 192 193 192 189 188 187 186
329 329 329 329 329 328 328 329 329 329 330 329 328 328 326 324 321 317 314 313 310 307 306 304 302 298 295 293 290 285 281 276 270 268 268 265 262 261 262 265 275 282 278 273 276 274 274 270 261 261 253 249 266 244 205 193 193 192 191 191 188 187 187 186 183 179 176 180 185 186 186 189 189 189 191 193 192 191 190 190 188 186 186 186 187
329 329 329 329 329 329 329 329 329 330 331 330 329 328 327 324 321 316 314 313 310 307 306 304 302 300 297 296 296 291 285 279 271 267 265 262 259 258 258 256 263 277 277 275 276 273 274 270 262 263 251 249 270 240 203 193 194 193 192 192 192 192 191 190 188 184 179 179 184 187 187 189 190 190 191 192 191 190 189 188 187 187 187 188 189
329 329 329 329 329 329 330 330 331 332 333 331 330 328 326 323 320 316 313 311 308 306 306 305 303 300 296 294 294 291 285 279 271 265 262 260 256 255 257 255 254 265 270 275 276 272 275 272 266 267 251 253 271 233 199 193 194 193 192 192 192 193 192 191 190 189 185 181 181 185 187 188 190 190 190 189 188 188 187 187 188 188 189 190 191
329 330 329 329 328 330 331 332 333 334 333 332 330 328 326 323 319 316 312 310 308 306 305 305 303 299 294 291 289 286 284 282 276 269 264 260 256 254 256 256 254 259 267 275 275 271 275 273 270 270 252 256 271 228 197 193 195 193 192 191 190 190 191 191 190 189 188 185 182 183 185 188 189 189 189 189 188 187 185 187 191 191 191 192 193
329 329 329 328 329 332 334 335 335 334 334 333 330 327 325 322 318 315 314 312 310 307 306 306 305 302 297 292 291 289 289 287 281 274 267 263 258 253 254 254 253 257 264 271 271 270 275 273 270 272 254 256 273 229 197 193 195 193 192 191 189 188 188 189 189 187 186 184 183 183 184 187 189 188 188 189 189 188 186 186 190 193 194 194 195
329 329 329 330 332 335 336 336 336 335 334 333 330 327 325 322 318 316 316 314 310 308 308 307 306 303 299 295 294 294 292 288 284 276 269 266 261 253 253 254 253 254 259 267 269 267 273 273 267 269 257 253 271 236 199 193 194 193 192 189 187 187 187 187 186 185 185 183 182 183 185 186 188 187 187 188 189 190 190 190 191 193 196 197 197
330 330 330 332 335 337 338 337 336 334 334 333 331 328 326 324 321 318 319 318 314 312 312 309 307 305 302 299 297 296 294 290 287 281 273 269 265 256 252 252 253 254 255 261 267 265 268 272 266 265 259 252 265 249 206 195 194 193 190 188 187 187 187 187 185 183 183 182 181 182 183 185 187 186 186 189 190 189 191 194 195 194 195 197 197
331 331 332 335 338 339 339 337 335 334 334 334 332 330 328 326 323 322 322 321 318 318 317 314 311 309 306 303 299 296 292 287 284 282 276 271 269 263 256 252 252 254 254 255 261 263 264 269 266 263 261 252 256 260 216 198 195 194 191 189 189 188 187 186 186 184 183 182 182 182 182 185 189 190 188 190 192 190 190 195 197 195 194 195 195
332 333 335 338 340 341 339 337 336 335 336 336 334 333 331 328 326 326 325 323 322 322 321 318 314 311 308 304 300 296 292 289 285 283 278 269 264 264 261 256 253 253 254 253 257 261 262 266 268 263 263 256 251 259 230 200 194 194 193 192 191 191 190 187 185 185 185 184 184 185 186 189 192 193 191 190 192 192 192 194 197 195 192 191 192
334 335 337 340 341 341 340 337 336 337 339 339 337 336 334 331 330 329 327 324 323 322 320 318 314 311 308 303 301 298 295 293 290 285 281 270 258 255 254 254 252 252 254 254 254 259 261 263 267 263 262 260 250 252 240 206 196 194 194 194 194 194 195 194 190 187 187 186 186 188 191 192 192 192 192 191 192 193 194 194 197 198 194 192 193
336 336 339 342 342 341 340 338 338 340 341 341 339 338 337 334 332 332 329 325 323 321 320 318 313 309 306 303 302 300 297 296 294 288 283 272 258 253 251 251 251 251 253 254 254 257 260 261 265 263 260 261 251 246 244 215 200 196 196 197 197 198 199 200 199 198 196 193 190 191 193 194 194 194 194 193 193 193 193 195 197 199 199 197 197
337 338 341 343 343 342 340 339 340 342 343 342 341 340 339 336 335 334 331 327 324 322 320 317 312 306 303 301 301 300 298 298 296 290 284 273 258 254 255 253 252 251 252 253 252 255 258 258 261 263 261 260 249 239 241 220 203 197 197 198 198 199 200 201 203 205 205 202 199 198 197 198 199 198 196 195 195 194 194 195 197 198 200 200 201
339 340 342 344 343 343 342 341 342 345 345 344 343 342 340 337 336 336 333 329 325 323 320 317 313 307 302 301 301 300 299 299 297 292 284 272 257 254 256 253 252 251 249 251 252 253 256 256 257 260 262 258 246 233 236 223 204 195 195 196 197 199 200 201 203 206 207 208 208 206 203 203 205 204 200 198 198 198 198 199 199 198 198 199 201
340 342 344 344 344 345 344 344 345 347 347 345 344 342 340 338 337 337 335 331 328 325 322 318 313 308 304 304 303 302 302 300 298 293 285 272 255 250 252 251 252 253 249 249 251 251 253 254 253 257 260 255 244 231 229 223 205 194 193 195 195 197 200 202 205 208 210 211 211 210 209 207 207 208 206 204 201 199 198 197 197 197 197 198 199
341 344 345 345 346 347 348 348 349 349 348 347 344 342 340 339 339 339 336 333 331 329 324 320 316 311 309 309 308 307 306 301 297 293 284 269 252 247 252 252 252 254 251 249 249 248 250 252 251 254 256 251 242 231 224 220 207 196 193 195 194 195 198 200 203 206 209 211 211 210 209 208 208 210 210 206 202 200 196 194 195 197 196 195 197
343 344 345 346 348 350 351 352 352 351 349 346 343 342 341 339 338 339 337 335 333 330 327 325 323 320 318 317 316 313 309 303 297 293 284 267 250 244 251 255 254 255 253 250 248 246 246 248 248 251 252 247 238 228 220 218 208 199 198 199 196 195 197 197 197 199 201 204 207 208 209 210 210 210 208 205 202 201 200 198 196 196 195 195 197
343 344 345 347 349 352 354 354 354 353 350 347 344 341 338 337 337 337 336 334 333 332 333 333 331 328 327 325 323 317 312 308 299 289 283 272 253 240 240 246 249 253 254 253 250 245 243 244 244 246 248 244 235 224 217 216 209 202 201 201 198 197 198 197 196 197 197 198 201 202 204 207 208 207 205 204 203 205 206 204 201 198 197 198 199
343 345 346 348 351 355 357 357 356 356 352 347 344 341 339 337 336 336 336 336 336 337 340 339 336 333 332 330 327 321 316 317 308 290 278 269 258 245 239 241 245 250 254 254 251 245 241 240 240 242 243 239 231 222 217 214 209 203 201 201 200 199 199 198 197 198 198 198 199 199 200 202 204 205 204 204 206 208 209 208 206 203 201 200 202
344 346 347 349 352 356 359 359 359 358 354 349 345 344 343 340 338 340 342 341 339 342 346 344 339 337 336 333 330 327 323 322 320 305 281 262 254 249 245 244 246 248 250 250 248 243 239 239 238 239 240 236 228 222 219 215 211 205 202 204 204 201 198 197 197 198 199 199 198 198 199 199 200 203 204 205 208 209 207 207 209 208 206 203 204
344 346 347 349 353 358 1 2 1 359 356 352 348 347 346 345 345 347 347 346 347 350 350 346 340 339 340 336 332 331 330 326 322 317 295 266 251 244 243 245 245 246 246 245 244 241 238 238 238 237 237 234 227 224 222 218 213 208 205 204 204 201 199 198 197 196 196 197 197 197 197 198 199 201 203 205 207 207 205 206 208 210 208 207 209
344 346 348 350 355 359 2 4 4 2 360 356 352 350 350 350 352 354 352 352 354 354 351 345 338 338 340 339 336 335 334 330 324 317 307 287 265 249 242 241 242 243 244 243 242 241 239 239 239 236 235 234 229 227 226 223 216 211 206 202 199 199 199 197 195 193 194 194 194 195 196 199 200 201 201 203 204 204 204 205 207 208 209 210 214
344 347 350 352 356 0 4 5 6 6 5 1 356 354 354 355 356 357 358 359 358 356 350 342 337 336 335 334 336 338 341 342 336 320 306 302 293 277 258 243 238 239 242 243 243 242 240 240 238 236 235 236 234 231 229 226 220 213 206 201 199 199 197 194 192 192 192 192 192 194 197 200 201 202 202 202 201 199 200 203 206 208 210 211 212
345 348 351 354 357 0 4 6 7 8 9 7 3 358 358 0 1 1 3 3 1 357 348 341 342 341 334 331 335 340 346 350 348 334 316 308 304 298 283 258 240 235 237 241 243 240 238 239 240 239 238 238 240 237 230 226 222 214 206 201 199 199 196 193 191 190 191 192 194 196 199 201 203 202 201 199 197 197 200 204 206 207 209 211 212
348 350 352 356 359 1 4 6 8 9 11 12 10 6 4 4 5 5 5 5 2 357 347 344 348 346 337 334 336 339 345 349 348 344 330 315 306 301 292 274 252 238 235 238 241 240 240 240 240 240 240 239 241 236 227 225 222 213 206 201 198 197 196 192 190 190 192 194 196 197 198 200 200 198 197 197 199 202 205 206 205 205 208 211 213
350 352 354 357 1 3 5 6 8 10 12 14 15 14 12 10 9 9 8 4 1 356 348 348 353 348 340 338 339 341 345 345 342 339 331 319 310 301 291 279 263 244 237 238 238 238 239 238 237 240 240 240 243 235 226 227 223 212 204 199 197 197 196 194 194 196 197 197 196 196 196 197 196 195 197 200 204 206 206 205 203 204 207 210 213
353 354 356 359 3 5 6 7 9 11 12 13 16 18 18 16 15 15 13 6 359 353 351 354 356 351 344 342 343 345 347 344 341 337 327 315 308 299 287 279 266 247 239 238 236 237 239 239 240 243 241 241 242 233 228 233 224 208 201 198 197 197 197 197 198 199 199 197 194 193 194 196 197 198 201 203 205 205 205 204 204 206 209 210 212
357 358 359 2 5 7 8 9 11 11 11 12 15 19 23 23 20 18 20 16 5 356 355 358 358 354 352 350 349 350 348 343 338 332 320 307 298 290 278 271 266 255 245 241 238 240 241 240 240 241 239 239 237 228 226 230 218 204 199 198 197 196 196 196 197 198 197 194 193 193 196 198 199 200 202 203 204 205 205 205 206 208 211 212 213
360 1 3 5 7 8 9 11 13 14 13 12 12 16 24 29 28 24 23 23 20 13 10 9 4 1 0 358 353 351 348 342 334 324 311 300 292 283 271 260 257 255 250 243 240 241 241 239 239 238 235 235 231 223 222 222 210 200 197 197 195 195 196 197 198 198 196 194 194 196 198 198 198 200 201 203 204 204 206 207 208 210 211 213 212
1 3 5 9 10 10 11 13 15 16 17 15 12 12 16 22 29 32 29 27 26 25 28 28 20 12 10 7 2 355 349 344 338 327 315 303 291 281 271 259 253 251 246 239 236 237 238 238 238 236 233 230 226 219 218 215 205 198 196 196 195 196 197 198 199 198 196 195 196 197 199 199 200 201 203 204 204 204 206 207 208 210 213 214 213
3 5 7 10 12 12 13 16 18 19 19 19 17 15 14 14 18 25 30 32 31 29 31 35 31 24 19 17 14 10 5 360 354 347 338 320 299 286 274 263 258 254 247 237 231 232 234 235 236 235 231 226 220 216 215 212 204 199 197 195 196 197 199 199 198 197 196 196 196 197 199 200 201 203 205 205 204 205 206 206 207 209 210 211 212
3 5 9 11 13 14 14 17 21 22 22 21 20 20 20 18 15 16 20 26 30 31 32 35 35 30 25 24 23 20 18 16 13 10 9 355 325 301 279 263 255 249 243 235 231 232 234 234 234 233 231 225 217 212 213 211 206 201 198 198 198 199 200 200 198 197 197 198 198 198 199 200 201 202 204 204 205 205 206 207 207 207 207 208 210
5 6 9 12 14 14 15 18 22 24 25 25 24 23 24 23 20 18 19 20 23 26 28 33 37 34 29 27 28 27 26 27 28 26 27 30 28 348 278 255 240 230 226 225 228 232 234 234 233 231 229 225 216 211 211 211 206 202 200 200 200 199 199 198 198 198 198 198 199 199 200 200 200 201 201 202 204 205 205 205 205 205 207 208 209
6 7 10 13 15 15 17 19 22 25 25 26 26 26 25 24 23 23 24 24 23 22 23 29 36 36 31 29 31 33 33 34 35 36 39 46 51 39 252 228 189 186 191 196 208 219 226 230 231 229 228 224 217 212 211 210 208 204 201 200 199 198 197 198 199 200 199 198 199 200 200 200 201 202 202 202 202 203 203 204 205 207 208 208 208
7 7 10 14 16 17 18 20 22 25 25 26 27 27 26 26 26 26 26 26 26 25 23 25 31 35 34 32 33 37 39 39 40 44 48 53 59 69 75 73 77 83 85 95 134 184 205 215 219 221 222 222 218 214 212 211 210 207 203 201 199 197 198 199 200 200 200 199 199 200 201 200 201 203 203 203 204 205 205 205 206 208 208 208 208
7 7 10 15 16 17 19 21 23 25 25 25 26 27 27 28 28 27 26 27 27 27 26 25 27 31 32 31 31 35 38 40 44 49 54 56 61 65 64 61 62 64 68 74 82 97 136 179 194 200 206 211 213 214 214 213 212 208 204 202 201 200 201 202 202 201 200 200 199 200 201 202 202 202 203 204 205 205 205 206 207 208 208 208 208
8 8 10 14 16 16 18 19 21 24 24 24 26 27 27 28 29 29 28 28 27 28 28 28 28 30 29 26 27 31 36 38 41 44 46 49 53 54 54 56 58 57 58 63 70 76 87 113 144 170 184 193 200 206 209 211 211 209 205 203 203 203 204 203 202 201 201 200 200 200 201 202 202 202 203 205 205 205 205 206 207 207 206 207 208
7 9 10 11 13 15 16 18 20 22 23 25 26 27 28 28 29 29 29 29 29 29 30 30 31 32 30 26 25 29 35 38 38 38 39 44 48 49 48 52 56 54 53 57 64 68 72 82 97 124 156 174 186 195 199 202 206 206 206 205 204 203 203 202 201 202 202 202 201 201 202 202 203 203 204 205 206 207 207 207 208 208 207 207 209
5 7 8 9 11 12 15 17 19 20 23 25 26 28 29 30 30 30 29 29 30 30 31 31 32 34 34 31 28 29 34 37 38 38 37 39 44 47 48 49 51 52 51 53 58 61 62 66 75 88 110 140 167 182 188 193 197 200 203 204 204 204 203 203 203 203 204 204 203 202 203 203 204 203 204 206 208 209 209 209 210 211 210 211 212
5 5 6 7 8 10 13 16 18 20 23 25 27 29 30 31 32 31 30 30 31 32 32 33 32 34 36 35 33 32 35 37 39 40 40 39 42 46 47 47 48 50 50 51 54 57 58 60 65 71 81 100 130 156 173 183 189 192 196 199 202 204 204 204 204 205 205 205 204 204 203 203 203 204 206 208 209 210 210 210 211 211 211 212 213
3 4 5 6 5 7 10 14 17 20 23 24 26 29 30 31 32 32 31 30 31 32 32 33 33 34 35 36 35 35 36 37 38 39 40 41 42 44 46 47 49 50 50 51 53 55 56 57 60 63 67 76 90 115 141 161 174 182 188 193 197 200 202 202 203 205 206 205 204 205 205 204 205 207 209 209 208 208 208 209 210 210 210 211 212
1 3 5 5 5 6 9 13 16 19 21 24 26 28 30 31 32 33 32 31 31 31 32 32 33 33 34 35 36 36 37 37 38 37 38 39 40 42 44 47 49 51 52 53 54 55 56 57 58 59 61 64 70 81 99 119 138 156 171 181 189 194 197 199 201 203 205 205 204 205 205 205 207 209 209 209 208 209 210 210 211 211 212 212 213
358 3 5 5 6 7 9 12 16 19 21 23 25 26 28 30 31 32 33 32 31 31 31 31 32 33 33 34 35 36 36 37 38 38 38 38 39 40 41 44 47 50 52 54 55 57 58 58 58 59 60 62 64 69 77 88 105 122 141 160 175 185 191 196 199 201 203 204 204 204 204 205 206 207 207 208 209 210 210 211 213 214 215 215 214
355 0 4 5 6 8 10 13 16 18 20 22 23 24 26 29 30 31 32 32 32 32 32 31 32 33 33 34 35 36 37 38 38 39 39 39 39 40 40 41 44 48 51 53 55 56 58 58 58 58 58 59 61 65 68 73 81 89 100 120 145 165 179 188 195 200 202 204 205 205 204 205 206 206 206 207 208 209 209 211 213 215 216 216 216
350 356 1 3 5 7 10 12 14 16 18 19 20 22 23 25 27 30 30 31 31 31 31 31 32 33 34 36 36 36 37 38 38 39 39 40 40 41 41 40 42 46 49 52 54 55 57 58 58 57 57 56 57 60 63 67 69 72 76 83 94 114 143 168 184 195 200 203 205 206 207 206 207 207 207 208 210 210 210 211 213 215 217 218 219
345 352 357 1 2 4 6 9 10 12 13 15 16 18 20 21 23 26 27 29 30 31 31 31 31 32 34 36 37 38 38 38 38 39 39 40 41 42 42 41 42 44 47 50 52 54 56 56 57 57 57 56 56 57 59 61 62 63 64 66 68 71 86 118 153 175 188 195 200 204 207 208 208 209 210 210 211 212 212 213 214 215 217 218 219
342 346 352 356 358 359 1 3 5 6 9 11 13 15 16 18 20 21 23 25 27 28 29 30 31 31 32 34 36 38 39 40 40 40 40 41 41 42 42 42 43 44 46 48 51 53 54 55 55 55 56 56 56 55 55 56 57 58 58 57 57 58 64 81 106 128 151 171 181 189 195 200 203 205 208 210 211 212 213 215 216 218 219 220 221
339 343 347 350 352 355 358 360 1 2 5 8 11 13 14 16 17 19 21 22 24 25 27 28 30 30 31 32 33 36 37 39 40 41 41 41 42 42 43 43 44 44 45 48 51 52 53 54 54 54 54 54 55 55 55 54 54 54 54 54 54 56 61 69 79 91 109 131 148 161 174 184 189 193 197 201 205 208 210 213 215 217 219 220 221
337 340 343 345 349 353 356 358 359 0 2 5 10 13 14 15 16 17 19 20 22 23 25 26 28 29 30 30 31 32 34 36 38 40 41 42 42 43 43 44 45 44 44 47 50 53 54 54 54 53 52 52 53 55 55 54 53 51 52 53 54 56 59 63 66 70 78 92 106 122 141 158 170 177 181 185 191 197 202 206 209 212 214 215 217
334 338 341 343 347 351 354 356 358 360 1 4 8 12 15 16 17 17 17 18 20 21 22 24 26 28 29 30 30 31 33 35 36 38 40 41 43 43 44 44 44 44 44 44 47 51 53 54 54 53 52 51 51 52 54 54 53 52 51 51 52 53 54 56 58 59 63 70 79 90 105 122 138 147 153 160 170 178 185 192 198 203 206 209 211